When you browse on this site, cookies collect data to enhance your experience and personalize the content and advertising you see.
Visit our Privacy Policy to learn more. By continuing to use the site, you agree to this use of cookies and data.
  • In Romania
  • List of Countries
  • For 7 days
  • Water Temperature
  • Weather Map
  • Weather Widgets
  • user-avatar
    Login

    Hourly Weather Coleraine

    Today, 7 April, Tuesday

    Time Temperature Precipitation Wind Pressure Humidity
    00:00 +3°C° 0 mm 3 mps 765 mmHg 89%
    01:00 +3°C° 0 mm 3 mps 766 mmHg 89%
    02:00 +3°C° 0 mm 3 mps 766 mmHg 90%
    03:00 +3°C° 0 mm 4 mps 766 mmHg 90%
    04:00 +3°C° 0 mm 4 mps 767 mmHg 90%
    05:00 +1°C° 0 mm 4 mps 767 mmHg 91%
    06:00 +1°C° 0 mm 4 mps 767 mmHg 91%
    07:00 +4°C° 0 mm 4 mps 767 mmHg 85%
    08:00 +5°C° 0 mm 5 mps 767 mmHg 80%
    09:00 +7°C° 0 mm 5 mps 767 mmHg 74%
    10:00 +8°C° 0 mm 5 mps 767 mmHg 72%
    11:00 +9°C° 0 mm 5 mps 767 mmHg 69%
    12:00 +12°C° 0 mm 5 mps 767 mmHg 67%
    13:00 +11°C° 0 mm 6 mps 766 mmHg 66%
    14:00 +11°C° 0 mm 6 mps 766 mmHg 66%
    15:00 +13°C° 0 mm 6 mps 766 mmHg 65%
    16:00 +12°C° 0 mm 5 mps 766 mmHg 69%
    17:00 +12°C° 0 mm 5 mps 766 mmHg 73%
    18:00 +11°C° 0 mm 4 mps 766 mmHg 78%
    19:00 +10°C° 0 mm 4 mps 765 mmHg 80%
    20:00 +8°C° 0 mm 4 mps 765 mmHg 83%
    21:00 +7°C° 0 mm 4 mps 765 mmHg 86%
    22:00 +7°C° 0 mm 4 mps 765 mmHg 86%
    23:00 +6°C° 0 mm 4 mps 765 mmHg 86%

    Tomorrow, 8 April, Wednesday

    Time Temperature Precipitation Wind Pressure Humidity
    00:00 +6°C° 0 mm 4 mps 765 mmHg 87%
    01:00 +6°C° 0 mm 4 mps 765 mmHg 87%
    02:00 +6°C° 0 mm 4 mps 765 mmHg 88%
    03:00 +6°C° 0 mm 4 mps 765 mmHg 88%
    04:00 +6°C° 0 mm 4 mps 765 mmHg 87%
    05:00 +6°C° 0 mm 4 mps 764 mmHg 86%
    06:00 +6°C° 0 mm 4 mps 764 mmHg 85%
    07:00 +7°C° 0 mm 4 mps 764 mmHg 85%
    08:00 +8°C° 0 mm 4 mps 764 mmHg 84%
    09:00 +8°C° 0 mm 4 mps 764 mmHg 84%
    10:00 +10°C° 0.1 mm 3 mps 764 mmHg 84%
    11:00 +10°C° 0.1 mm 3 mps 765 mmHg 84%
    12:00 +11°C° 0.1 mm 3 mps 765 mmHg 84%
    13:00 +11°C° 0 mm 3 mps 765 mmHg 85%
    14:00 +11°C° 0 mm 3 mps 765 mmHg 85%
    15:00 +13°C° 0 mm 2 mps 765 mmHg 85%
    16:00 +13°C° 0.1 mm 2 mps 765 mmHg 87%
    17:00 +13°C° 0.1 mm 2 mps 765 mmHg 88%
    18:00 +12°C° 0.1 mm 2 mps 765 mmHg 90%
    19:00 +12°C° 0 mm 2 mps 766 mmHg 92%
    20:00 +10°C° 0 mm 2 mps 766 mmHg 93%
    21:00 +9°C° 0 mm 2 mps 766 mmHg 95%
    22:00 +10°C° 0 mm 1 mps 766 mmHg 94%
    23:00 +9°C° 0 mm 1 mps 766 mmHg 93%

    Day after tomorrow, 9 April, Thursday

    Time Temperature Precipitation Wind Pressure Humidity
    00:00 +9°C° 0 mm 1 mps 767 mmHg 92%
    01:00 +9°C° 0 mm 1 mps 766 mmHg 91%
    02:00 +9°C° 0 mm 1 mps 766 mmHg 90%
    03:00 +8°C° 0 mm 1 mps 766 mmHg 89%
    04:00 +8°C° 0 mm 1 mps 766 mmHg 90%
    05:00 +8°C° 0 mm 1 mps 766 mmHg 91%
    06:00 +8°C° 0 mm 1 mps 766 mmHg 92%
    07:00 +9°C° 0 mm 1 mps 766 mmHg 90%
    08:00 +9°C° 0 mm 2 mps 766 mmHg 89%
    09:00 +12°C° 0 mm 2 mps 766 mmHg 88%
    10:00 +12°C° 0 mm 3 mps 766 mmHg 86%
    11:00 +12°C° 0 mm 4 mps 766 mmHg 84%
    12:00 +13°C° 0 mm 4 mps 767 mmHg 81%
    13:00 +13°C° 0 mm 4 mps 766 mmHg 80%
    14:00 +13°C° 0 mm 5 mps 766 mmHg 79%
    15:00 +14°C° 0 mm 5 mps 765 mmHg 78%
    16:00 +13°C° 0 mm 5 mps 765 mmHg 80%
    17:00 +12°C° 0 mm 5 mps 765 mmHg 82%
    18:00 +12°C° 0 mm 4 mps 765 mmHg 84%
    19:00 +11°C° 0 mm 4 mps 765 mmHg 88%
    20:00 +10°C° 0 mm 3 mps 765 mmHg 91%
    21:00 +9°C° 0 mm 3 mps 765 mmHg 95%
    22:00 +9°C° 0 mm 3 mps 765 mmHg 94%
    23:00 +9°C° 0 mm 3 mps 765 mmHg 94%

    10 April, Friday

    Time Temperature Precipitation Wind Pressure Humidity
    00:00 +9°C° 0 mm 3 mps 765 mmHg 94%
    01:00 +9°C° 0 mm 3 mps 765 mmHg 94%
    02:00 +9°C° 0 mm 3 mps 764 mmHg 94%
    03:00 +9°C° 0 mm 3 mps 764 mmHg 95%
    04:00 +9°C° 0 mm 3 mps 764 mmHg 95%
    05:00 +9°C° 0 mm 3 mps 764 mmHg 96%
    06:00 +8°C° 0 mm 3 mps 764 mmHg 96%
    07:00 +9°C° 0 mm 3 mps 764 mmHg 94%
    08:00 +10°C° 0 mm 3 mps 764 mmHg 92%
    09:00 +11°C° 0 mm 3 mps 764 mmHg 90%
    10:00 +12°C° 0 mm 3 mps 764 mmHg 87%
    11:00 +13°C° 0 mm 3 mps 764 mmHg 84%
    12:00 +14°C° 0 mm 3 mps 764 mmHg 81%
    13:00 +16°C° 0.1 mm 3 mps 763 mmHg 82%
    14:00 +16°C° 0.1 mm 3 mps 763 mmHg 82%
    15:00 +16°C° 0.1 mm 3 mps 763 mmHg 83%
    16:00 +14°C° 0.2 mm 3 mps 763 mmHg 85%
    17:00 +14°C° 0.2 mm 3 mps 763 mmHg 88%
    18:00 +13°C° 0.2 mm 3 mps 763 mmHg 91%
    19:00 +12°C° 0.1 mm 3 mps 763 mmHg 92%
    20:00 +11°C° 0.1 mm 3 mps 763 mmHg 93%
    21:00 +10°C° 0.1 mm 4 mps 764 mmHg 95%
    22:00 +8°C° 0 mm 4 mps 764 mmHg 94%
    23:00 +8°C° 0 mm 4 mps 764 mmHg 94%

    11 April, Saturday

    Time Temperature Precipitation Wind Pressure Humidity
    00:00 +7°C° 0 mm 4 mps 764 mmHg 93%
    01:00 +7°C° 0 mm 4 mps 764 mmHg 91%
    02:00 +7°C° 0 mm 4 mps 764 mmHg 89%
    03:00 +7°C° 0 mm 4 mps 764 mmHg 87%
    04:00 +7°C° 0 mm 5 mps 764 mmHg 87%
    05:00 +7°C° 0 mm 5 mps 764 mmHg 87%
    06:00 +7°C° 0 mm 5 mps 765 mmHg 87%
    07:00 +7°C° 0 mm 6 mps 765 mmHg 85%
    08:00 +7°C° 0 mm 6 mps 765 mmHg 83%
    09:00 +8°C° 0 mm 6 mps 765 mmHg 81%
    10:00 +9°C° 0 mm 5 mps 765 mmHg 77%
    11:00 +10°C° 0 mm 5 mps 765 mmHg 72%
    12:00 +12°C° 0 mm 5 mps 765 mmHg 68%
    13:00 +13°C° 0 mm 4 mps 765 mmHg 65%
    14:00 +13°C° 0 mm 4 mps 765 mmHg 63%
    15:00 +13°C° 0 mm 4 mps 764 mmHg 60%
    16:00 +13°C° 0 mm 4 mps 764 mmHg 65%
    17:00 +12°C° 0 mm 3 mps 763 mmHg 69%
    18:00 +11°C° 0 mm 3 mps 763 mmHg 73%
    19:00 +11°C° 0 mm 3 mps 762 mmHg 74%
    20:00 +10°C° 0 mm 3 mps 762 mmHg 75%
    21:00 +9°C° 0 mm 3 mps 762 mmHg 76%
    22:00 +9°C° 0.1 mm 3 mps 761 mmHg 78%
    23:00 +9°C° 0.1 mm 3 mps 760 mmHg 81%

    12 April, Sunday

    Time Temperature Precipitation Wind Pressure Humidity
    00:00 +9°C° 0.1 mm 3 mps 760 mmHg 83%
    01:00 +8°C° 0.1 mm 3 mps 759 mmHg 87%
    02:00 +8°C° 0.1 mm 3 mps 759 mmHg 90%
    03:00 +8°C° 0.1 mm 3 mps 758 mmHg 94%
    04:00 +7°C° 0.1 mm 3 mps 758 mmHg 93%
    05:00 +6°C° 0.1 mm 4 mps 758 mmHg 92%
    06:00 +5°C° 0.1 mm 4 mps 758 mmHg 91%
    07:00 +6°C° 0 mm 5 mps 758 mmHg 87%
    08:00 +6°C° 0 mm 5 mps 758 mmHg 83%
    09:00 +7°C° 0 mm 6 mps 758 mmHg 79%
    10:00 +7°C° 0 mm 6 mps 758 mmHg 77%
    11:00 +8°C° 0 mm 6 mps 758 mmHg 75%
    12:00 +8°C° 0 mm 6 mps 758 mmHg 73%
    13:00 +8°C° 0.1 mm 7 mps 758 mmHg 78%
    14:00 +6°C° 0.1 mm 9 mps 758 mmHg 83%
    15:00 +6°C° 0.1 mm 10 mps 759 mmHg 89%
    16:00 +6°C° 0.1 mm 10 mps 759 mmHg 87%
    17:00 +6°C° 0.1 mm 9 mps 760 mmHg 86%
    18:00 +6°C° 0.1 mm 8 mps 760 mmHg 84%
    19:00 +6°C° 0 mm 8 mps 761 mmHg 83%
    20:00 +6°C° 0 mm 8 mps 763 mmHg 83%
    21:00 +6°C° 0 mm 8 mps 764 mmHg 82%
    22:00 +6°C° 0 mm 8 mps 764 mmHg 82%
    23:00 +6°C° 0 mm 8 mps 765 mmHg 81%
    Show more